,,,PA_Meas_PMT16A,,PR_Meas_QMR101_102,,RH_Meas_QMH101,,SR_Meas_QMS101,,TA_Meas_QMH101,,GenWind,,GenWind,
date,time,status,PA,status,PR,status,RH,status,SR,status,TA,status,DirAvg,status,SpdAvg,
2014-07-12, 00:00:05,VALID,1010.79,VALID,0,VALID,83.4562,VALID,0,VALID,24.8244,VALID,229,VALID,0,
2014-07-12, 00:01:05,VALID,1010.77,VALID,0,VALID,83.7536,VALID,0,VALID,24.8438,VALID,229,VALID,0,
2014-07-12, 00:02:05,VALID,1010.75,VALID,0,VALID,83.5401,VALID,0,VALID,24.8438,VALID,229,VALID,0,
2014-07-12, 00:03:05,VALID,1010.74,VALID,0,VALID,83.3952,VALID,0.112112,VALID,24.842,VALID,229,VALID,0,
2014-07-12, 00:04:05,VALID,1010.72,VALID,0,VALID,83.3952,VALID,0,VALID,24.8633,VALID,229,VALID,0,
2014-07-12, 00:05:05,VALID,1010.67,VALID,0,VALID,82.9606,VALID,0,VALID,24.8438,VALID,229,VALID,0,
2014-07-12, 00:06:05,VALID,1010.59,VALID,0,VALID,82.7013,VALID,0,VALID,24.8244,VALID,229,VALID,0,
2014-07-12, 00:07:05,VALID,1010.54,VALID,0,VALID,82.0912,VALID,0,VALID,24.8244,VALID,229,VALID,0,
2014-07-12, 00:08:05,VALID,1010.5,VALID,0,VALID,82.1065,VALID,0,VALID,24.8457,VALID,229,VALID,0,
2014-07-12, 00:09:05,VALID,1010.46,VALID,0,VALID,82.0836,VALID,0,VALID,24.8049,VALID,229,VALID,0,
2014-07-12, 00:10:05,VALID,1010.41,VALID,0,VALID,81.5269,VALID,0,VALID,24.7854,VALID,229,VALID,0,
2014-07-12, 00:11:05,VALID,1010.41,VALID,0,VALID,81.8091,VALID,0,VALID,24.7854,VALID,229,VALID,0,
2014-07-12, 00:12:05,VALID,1010.37,VALID,0,VALID,81.8853,VALID,0,VALID,24.7872,VALID,229,VALID,0,
2014-07-12, 00:13:05,VALID,1010.34,VALID,0,VALID,82.0836,VALID,0,VALID,24.7854,VALID,229,VALID,0,
2014-07-12, 00:14:05,VALID,1010.33,VALID,0,VALID,81.6337,VALID,0,VALID,24.7659,VALID,229,VALID,0,
2014-07-12, 00:15:05,VALID,1010.25,VALID,0,VALID,81.4659,VALID,0,VALID,24.7464,VALID,229,VALID,0,
2014-07-12, 00:16:05,VALID,1010.2,VALID,0,VALID,81.5651,VALID,0,VALID,24.7269,VALID,229,VALID,0,
2014-07-12, 00:17:05,VALID,1010.17,VALID,0,VALID,81.5498,VALID,0,VALID,24.7269,VALID,229,VALID,0,
2014-07-12, 00:18:05,VALID,1010.14,VALID,0,VALID,81.5651,VALID,0,VALID,24.7074,VALID,229,VALID,0,
2014-07-12, 00:19:05,VALID,1010.14,VALID,0,VALID,81.6794,VALID,0,VALID,24.6684,VALID,229,VALID,0,
2014-07-12, 00:20:05,VALID,1010.12,VALID,0,VALID,82.1599,VALID,0,VALID,24.6489,VALID,229,VALID,0,
2014-07-12, 00:21:05,VALID,1010.12,VALID,0,VALID,82.4039,VALID,0,VALID,24.6489,VALID,229,VALID,0,
2014-07-12, 00:22:05,VALID,1010.1,VALID,0,VALID,82.3658,VALID,0,VALID,24.6294,VALID,229,VALID,0,
2014-07-12, 00:23:05,VALID,1010.1,VALID,0,VALID,82.8157,VALID,0,VALID,24.5905,VALID,229,VALID,0,
2014-07-12, 00:24:05,VALID,1010.1,VALID,0,VALID,82.6937,VALID,0,VALID,24.571,VALID,229,VALID,0,
2014-07-12, 00:25:05,VALID,1010.07,VALID,0,VALID,83.1893,VALID,0,VALID,24.5515,VALID,229,VALID,0,
2014-07-12, 00:26:05,VALID,1010.04,VALID,0,VALID,83.5478,VALID,0,VALID,24.5533,VALID,229,VALID,0,
2014-07-12, 00:27:05,VALID,1010.02,VALID,0,VALID,83.8985,VALID,0,VALID,24.5125,VALID,229,VALID,0,
2014-07-12, 00:28:04,VALID,1009.98,VALID,0,VALID,84.1883,VALID,0,VALID,24.4949,VALID,229,VALID,0,
2014-07-12, 00:29:04,VALID,1009.95,VALID,0,VALID,84.2722,VALID,0,VALID,24.4754,VALID,229,VALID,0,
2014-07-12, 00:30:04,VALID,1009.95,VALID,0,VALID,84.2951,VALID,0,VALID,24.4345,VALID,229,VALID,0,
2014-07-12, 00:31:04,VALID,1009.93,VALID,0,VALID,84.684,VALID,0,VALID,24.3761,VALID,229,VALID,0,
2014-07-12, 00:32:04,VALID,1009.9,VALID,0,VALID,84.867,VALID,0,VALID,24.3352,VALID,229,VALID,0,
2014-07-12, 00:33:04,VALID,1009.88,VALID,0,VALID,85.2864,VALID,0,VALID,24.3176,VALID,229,VALID,0,
2014-07-12, 00:34:04,VALID,1009.79,VALID,0,VALID,85.7211,VALID,0,VALID,24.2981,VALID,229,VALID,0,
2014-07-12, 00:35:04,VALID,1009.72,VALID,0,VALID,85.9194,VALID,0,VALID,24.2396,VALID,229,VALID,0,
2014-07-12, 00:36:04,VALID,1009.67,VALID,0,VALID,86.2168,VALID,0,VALID,24.2007,VALID,229,VALID,0,
2014-07-12, 00:37:04,VALID,1009.61,VALID,0,VALID,86.6819,VALID,0,VALID,24.1812,VALID,229,VALID,0,
2014-07-12, 00:38:04,VALID,1009.58,VALID,0,VALID,86.8573,VALID,0,VALID,24.1812,VALID,229,VALID,0,
2014-07-12, 00:39:04,VALID,1009.56,VALID,0,VALID,87.3454,VALID,0,VALID,24.1617,VALID,229,VALID,0,
2014-07-12, 00:40:04,VALID,1009.5,VALID,0,VALID,87.414,VALID,0,VALID,24.1422,VALID,229,VALID,0,
2014-07-12, 00:41:04,VALID,1009.48,VALID,0,VALID,87.8182,VALID,0,VALID,24.1227,VALID,229,VALID,0,
2014-07-12, 00:42:04,VALID,1009.45,VALID,0,VALID,88.6341,VALID,0,VALID,24.1422,VALID,229,VALID,0,
2014-07-12, 00:43:04,VALID,1009.45,VALID,0,VALID,88.6341,VALID,0,VALID,24.1227,VALID,229,VALID,0,
2014-07-12, 00:44:04,VALID,1009.43,VALID,0,VALID,88.6418,VALID,0,VALID,24.1032,VALID,229,VALID,0,
2014-07-12, 00:45:04,VALID,1009.47,VALID,0,VALID,88.8095,VALID,0,VALID,24.0837,VALID,229,VALID,0,
2014-07-12, 00:46:04,VALID,1009.49,VALID,0,VALID,89.2366,VALID,0,VALID,24.0837,VALID,229,VALID,0,
2014-07-12, 00:47:04,VALID,1009.51,VALID,0,VALID,89.534,VALID,0,VALID,24.0643,VALID,229,VALID,0,
2014-07-12, 00:48:04,VALID,1009.51,VALID,0,VALID,90.4033,VALID,0,VALID,24.0448,VALID,229,VALID,0,
2014-07-12, 00:49:04,VALID,1009.55,VALID,0,VALID,91.0896,VALID,0,VALID,24.0058,VALID,229,VALID,0,
2014-07-12, 00:50:04,VALID,1009.55,VALID,0,VALID,93.0037,VALID,0,VALID,23.9668,VALID,229,VALID,0,
2014-07-12, 00:51:04,VALID,1009.56,VALID,0,VALID,94.2162,VALID,0,VALID,23.9278,VALID,229,VALID,0,
2014-07-12, 00:52:04,VALID,1009.59,VALID,0,VALID,96.5954,VALID,0,VALID,23.9297,VALID,229,VALID,0,
2014-07-12, 00:53:04,VALID,1009.57,VALID,0,VALID,97.7698,VALID,0,VALID,23.8889,VALID,229,VALID,0,
2014-07-12, 00:54:04,VALID,1009.55,VALID,0,VALID,98.1434,VALID,0,VALID,23.8694,VALID,229,VALID,0,
2014-07-12, 00:55:04,VALID,1009.57,VALID,0,VALID,98.3646,VALID,0,VALID,23.8499,VALID,229,VALID,0,
2014-07-12, 00:56:04,VALID,1009.63,VALID,0,VALID,98.7001,VALID,0,VALID,23.8499,VALID,229,VALID,0,
2014-07-12, 00:57:04,VALID,1009.66,VALID,0,VALID,99.1729,VALID,0,VALID,23.8304,VALID,229,VALID,0,
2014-07-12, 00:58:04,VALID,1009.66,VALID,0,VALID,99.4627,VALID,0,VALID,23.8304,VALID,229,VALID,0,
2014-07-12, 00:59:04,VALID,1009.71,VALID,0,VALID,99.7754,VALID,0,VALID,23.8091,VALID,229,VALID,0,
2014-07-12, 01:00:04,VALID,1009.66,VALID,0,VALID,100.08,VALID,0,VALID,23.8109,VALID,229,VALID,0,
2014-07-12, 01:01:04,VALID,1009.65,VALID,0,VALID,100.446,VALID,0,VALID,23.8109,VALID,229,VALID,0,
2014-07-12, 01:02:04,VALID,1009.62,VALID,0,VALID,100.721,VALID,0,VALID,23.7914,VALID,229,VALID,0,
2014-07-12, 01:03:04,VALID,1009.57,VALID,0,VALID,100.675,VALID,0,VALID,23.8517,VALID,229,VALID,0,
2014-07-12, 01:04:04,VALID,1009.57,VALID,0,VALID,100.469,VALID,0,VALID,23.8499,VALID,229,VALID,0,
2014-07-12, 01:05:04,VALID,1009.57,VALID,0,VALID,100.363,VALID,0,VALID,23.8694,VALID,229,VALID,0,
2014-07-12, 01:06:04,VALID,1009.6,VALID,0,VALID,100.027,VALID,0,VALID,23.8889,VALID,229,VALID,0,
2014-07-12, 01:07:04,VALID,1009.61,VALID,0,VALID,99.9889,VALID,0,VALID,23.8889,VALID,229,VALID,0,
2014-07-12, 01:08:04,VALID,1009.59,VALID,0,VALID,100.195,VALID,0,VALID,23.9084,VALID,229,VALID,0.0140625,
2014-07-12, 01:09:04,VALID,1009.59,VALID,0,VALID,100.202,VALID,0,VALID,23.9278,VALID,229,VALID,0.242969,
2014-07-12, 01:10:04,VALID,1009.59,VALID,0,VALID,100.37,VALID,0,VALID,23.9491,VALID,229,VALID,0.388281,
2014-07-12, 01:11:04,VALID,1009.56,VALID,0,VALID,100.477,VALID,0,VALID,23.9491,VALID,229,VALID,0.546875,
2014-07-12, 01:12:04,VALID,1009.57,VALID,0,VALID,100.485,VALID,0,VALID,23.9278,VALID,229,VALID,0.717578,
2014-07-12, 01:13:04,VALID,1009.56,VALID,0,VALID,100.187,VALID,0,VALID,23.9297,VALID,229,VALID,0.628906,
2014-07-12, 01:14:04,VALID,1009.52,VALID,0,VALID,99.844,VALID,0,VALID,23.9084,VALID,229,VALID,0.485938,
2014-07-12, 01:15:04,VALID,1009.52,VALID,0,VALID,99.2644,VALID,0,VALID,23.9297,VALID,229,VALID,0.477344,
2014-07-12, 01:16:04,VALID,1009.55,VALID,0,VALID,99.0738,VALID,0,VALID,23.9297,VALID,229,VALID,0.179297,
2014-07-12, 01:17:04,VALID,1009.56,VALID,0,VALID,98.4866,VALID,0,VALID,23.9102,VALID,229,VALID,0.73125,
2014-07-12, 01:18:04,VALID,1009.56,VALID,0,VALID,98.4714,VALID,0,VALID,23.9102,VALID,229,VALID,0.333984,
2014-07-12, 01:19:04,VALID,1009.61,VALID,0,VALID,98.54,VALID,0,VALID,23.8889,VALID,229,VALID,0.537891,
2014-07-12, 01:20:04,VALID,1009.59,VALID,0,VALID,98.9899,VALID,0,VALID,23.8889,VALID,229,VALID,0.523438,
2014-07-12, 01:21:04,VALID,1009.64,VALID,0,VALID,99.1272,VALID,0,VALID,23.9102,VALID,229,VALID,0.675391,
2014-07-12, 01:22:04,VALID,1009.63,VALID,0,VALID,99.3407,VALID,0,VALID,23.8694,VALID,229,VALID,0.544141,
2014-07-12, 01:23:04,VALID,1009.64,VALID,0,VALID,98.9518,VALID,0,VALID,23.8499,VALID,229,VALID,0.575781,
2014-07-12, 01:24:04,VALID,1009.64,VALID,0,VALID,98.7688,VALID,0,VALID,23.8694,VALID,229,VALID,0.729688,
2014-07-12, 01:25:04,VALID,1009.66,VALID,0,VALID,98.6544,VALID,0,VALID,23.8889,VALID,229,VALID,0.301953,
2014-07-12, 01:26:04,VALID,1009.68,VALID,0,VALID,98.7154,VALID,0,VALID,23.8889,VALID,229,VALID,0.572266,
2014-07-12, 01:27:04,VALID,1009.71,VALID,0,VALID,98.3646,VALID,0,VALID,23.8889,VALID,229,VALID,0.163281,
2014-07-12, 01:28:04,VALID,1009.72,VALID,0,VALID,98.235,VALID,0,VALID,23.9102,VALID,229,VALID,0.512109,
2014-07-12, 01:29:04,VALID,1009.74,VALID,0,VALID,98.6162,VALID,0,VALID,23.9084,VALID,229,VALID,0.603906,
2014-07-12, 01:30:04,VALID,1009.75,VALID,0,VALID,98.6391,VALID,0,VALID,23.9084,VALID,229,VALID,0.614844,
2014-07-12, 01:31:04,VALID,1009.75,VALID,0,VALID,98.6696,VALID,0,VALID,23.9084,VALID,229,VALID,0.733203,
2014-07-12, 01:32:04,VALID,1009.73,VALID,0,VALID,98.4485,VALID,0,VALID,23.9278,VALID,229,VALID,1.31289,
2014-07-12, 01:33:04,VALID,1009.75,VALID,0,VALID,98.2655,VALID,0,VALID,23.9278,VALID,229,VALID,0.783984,
2014-07-12, 01:34:04,VALID,1009.73,VALID,0,VALID,97.9986,VALID,0,VALID,23.9491,VALID,229,VALID,0.846484,
2014-07-12, 01:35:04,VALID,1009.74,VALID,0,VALID,98.1511,VALID,0,VALID,23.9278,VALID,229,VALID,0.885547,
2014-07-12, 01:36:04,VALID,1009.73,VALID,0,VALID,97.9909,VALID,0,VALID,23.9278,VALID,229,VALID,0.771094,
2014-07-12, 01:37:04,VALID,1009.74,VALID,0,VALID,97.9299,VALID,0,VALID,23.9084,VALID,229,VALID,0.664844,
2014-07-12, 01:38:04,VALID,1009.72,VALID,0,VALID,97.9299,VALID,0,VALID,23.9278,VALID,211,VALID,0.904688,
2014-07-12, 01:39:04,VALID,1009.7,VALID,0,VALID,98.0519,VALID,0,VALID,23.9297,VALID,211,VALID,0.821875,
2014-07-12, 01:40:04,VALID,1009.68,VALID,0,VALID,98.418,VALID,0,VALID,23.9084,VALID,211,VALID,0.783984,
2014-07-12, 01:41:04,VALID,1009.68,VALID,0,VALID,98.4408,VALID,0,VALID,23.8889,VALID,204,VALID,0.864844,
2014-07-12, 01:42:04,VALID,1009.65,VALID,0,VALID,98.6849,VALID,0,VALID,23.9297,VALID,204,VALID,0.80625,
2014-07-12, 01:43:04,VALID,1009.63,VALID,0,VALID,98.8603,VALID,0,VALID,23.8889,VALID,204,VALID,0.496094,
2014-07-12, 01:44:04,VALID,1009.69,VALID,0,VALID,99.0814,VALID,0,VALID,23.9102,VALID,204,VALID,0.673828,
2014-07-12, 01:45:04,VALID,1009.65,VALID,0,VALID,99.1577,VALID,0,VALID,23.9102,VALID,204,VALID,0.467187,
2014-07-12, 01:46:04,VALID,1009.65,VALID,0,VALID,99.2873,VALID,0,VALID,23.8889,VALID,204,VALID,0.300391,
2014-07-12, 01:47:04,VALID,1009.62,VALID,0,VALID,99.722,VALID,0,VALID,23.9084,VALID,204,VALID,0.642969,
2014-07-12, 01:48:04,VALID,1009.6,VALID,0,VALID,99.8821,VALID,0,VALID,23.9102,VALID,204,VALID,0.828125,
2014-07-12, 01:49:04,VALID,1009.61,VALID,0,VALID,100.019,VALID,0,VALID,23.9102,VALID,204,VALID,0.513672,
2014-07-12, 01:50:04,VALID,1009.6,VALID,0,VALID,100.21,VALID,0,VALID,23.8694,VALID,204,VALID,0.416797,
2014-07-12, 01:51:04,VALID,1009.6,VALID,0,VALID,100.424,VALID,0,VALID,23.8907,VALID,204,VALID,0.429297,
2014-07-12, 01:52:04,VALID,1009.57,VALID,0,VALID,100.401,VALID,0,VALID,23.8694,VALID,204,VALID,0.517187,
2014-07-12, 01:53:04,VALID,1009.54,VALID,0,VALID,100.5,VALID,0,VALID,23.8907,VALID,204,VALID,0.33125,
2014-07-12, 01:54:04,VALID,1009.53,VALID,0,VALID,100.408,VALID,0,VALID,23.8907,VALID,204,VALID,0,
2014-07-12, 01:55:04,VALID,1009.54,VALID,0,VALID,100.431,VALID,0,VALID,23.8676,VALID,204,VALID,0,
2014-07-12, 01:56:04,VALID,1009.53,VALID,0,VALID,100.469,VALID,0,VALID,23.8694,VALID,204,VALID,0,
2014-07-12, 01:57:04,VALID,1009.54,VALID,0,VALID,100.523,VALID,0,VALID,23.8694,VALID,204,VALID,0,
2014-07-12, 01:58:04,VALID,1009.56,VALID,0,VALID,100.614,VALID,0.112112,VALID,23.8499,VALID,204,VALID,0,
2014-07-12, 01:59:04,VALID,1009.56,VALID,0,VALID,100.568,VALID,0,VALID,23.8109,VALID,204,VALID,0,
2014-07-12, 02:00:04,VALID,1009.55,VALID,0,VALID,100.698,VALID,0,VALID,23.7914,VALID,204,VALID,0,
2014-07-12, 02:01:04,VALID,1009.53,VALID,0,VALID,100.858,VALID,0.112112,VALID,23.7525,VALID,204,VALID,0,
2014-07-12, 02:02:04,VALID,1009.56,VALID,0,VALID,101.056,VALID,0,VALID,23.7135,VALID,204,VALID,0,
2014-07-12, 02:03:04,VALID,1009.52,VALID,0,VALID,101.224,VALID,0.112112,VALID,23.7135,VALID,204,VALID,0,
2014-07-12, 02:04:04,VALID,1009.51,VALID,0,VALID,101.407,VALID,0,VALID,23.694,VALID,204,VALID,0,
2014-07-12, 02:05:04,VALID,1009.49,VALID,0,VALID,101.598,VALID,0,VALID,23.6745,VALID,204,VALID,0,
2014-07-12, 02:06:04,VALID,1009.49,VALID,0,VALID,101.705,VALID,0,VALID,23.655,VALID,204,VALID,0,
2014-07-12, 02:07:04,VALID,1009.46,VALID,0,VALID,101.75,VALID,0,VALID,23.6143,VALID,204,VALID,0,
2014-07-12, 02:08:04,VALID,1009.46,VALID,0,VALID,101.857,VALID,0,VALID,23.6161,VALID,204,VALID,0.255078,
2014-07-12, 02:09:04,VALID,1009.47,VALID,0,VALID,101.964,VALID,0,VALID,23.5771,VALID,204,VALID,0.325,
2014-07-12, 02:10:04,VALID,1009.49,VALID,0,VALID,102.17,VALID,0,VALID,23.5771,VALID,204,VALID,0.267188,
2014-07-12, 02:11:04,VALID,1009.46,VALID,0,VALID,102.315,VALID,0.112112,VALID,23.5381,VALID,204,VALID,0.34375,
2014-07-12, 02:12:04,VALID,1009.47,VALID,0,VALID,102.46,VALID,0,VALID,23.5186,VALID,204,VALID,0.312109,
2014-07-12, 02:13:04,VALID,1009.45,VALID,0,VALID,102.574,VALID,0.112112,VALID,23.4584,VALID,204,VALID,0.372656,
2014-07-12, 02:14:04,VALID,1009.44,VALID,0,VALID,102.696,VALID,0,VALID,23.4407,VALID,204,VALID,0.514063,
2014-07-12, 02:15:04,VALID,1009.42,VALID,0,VALID,102.887,VALID,0,VALID,23.4212,VALID,204,VALID,0.254297,
2014-07-12, 02:16:04,VALID,1009.4,VALID,0,VALID,103.131,VALID,0,VALID,23.4212,VALID,204,VALID,0.467969,
2014-07-12, 02:17:04,VALID,1009.4,VALID,0,VALID,103.367,VALID,0,VALID,23.4212,VALID,204,VALID,0.288672,
2014-07-12, 02:18:04,VALID,1009.37,VALID,0,VALID,103.55,VALID,0,VALID,23.4212,VALID,204,VALID,0.4,
2014-07-12, 02:19:04,VALID,1009.37,VALID,0,VALID,103.642,VALID,0,VALID,23.4017,VALID,204,VALID,0,
2014-07-12, 02:20:04,VALID,1009.39,VALID,0,VALID,103.703,VALID,0,VALID,23.4212,VALID,204,VALID,0.298438,
2014-07-12, 02:21:04,VALID,1009.36,VALID,0,VALID,103.825,VALID,0,VALID,23.423,VALID,204,VALID,0,
2014-07-12, 02:22:04,VALID,1009.4,VALID,0,VALID,103.939,VALID,0,VALID,23.361,VALID,204,VALID,0.0730469,
2014-07-12, 02:23:04,VALID,1009.39,VALID,0,VALID,104,VALID,0,VALID,23.3823,VALID,204,VALID,0.214453,
2014-07-12, 02:24:04,VALID,1009.4,VALID,0,VALID,104,VALID,0,VALID,23.3628,VALID,204,VALID,0,
2014-07-12, 02:25:04,VALID,1009.38,VALID,0,VALID,104,VALID,0,VALID,23.3823,VALID,204,VALID,0,
2014-07-12, 02:26:04,VALID,1009.36,VALID,0,VALID,104,VALID,0,VALID,23.3823,VALID,204,VALID,0,
2014-07-12, 02:27:04,VALID,1009.36,VALID,0,VALID,104,VALID,0,VALID,23.3823,VALID,204,VALID,0,
2014-07-12, 02:28:04,VALID,1009.34,VALID,0,VALID,104,VALID,0,VALID,23.4017,VALID,204,VALID,0,
2014-07-12, 02:29:04,VALID,1009.36,VALID,0,VALID,104,VALID,0,VALID,23.4212,VALID,204,VALID,0,
2014-07-12, 02:30:04,VALID,1009.37,VALID,0,VALID,104,VALID,0,VALID,23.4017,VALID,204,VALID,0,
2014-07-12, 02:31:04,VALID,1009.35,VALID,0,VALID,104,VALID,0,VALID,23.4212,VALID,204,VALID,0,
2014-07-12, 02:32:04,VALID,1009.34,VALID,0,VALID,104,VALID,0,VALID,23.4212,VALID,204,VALID,0,
2014-07-12, 02:33:04,VALID,1009.33,VALID,0,VALID,104,VALID,0,VALID,23.4212,VALID,204,VALID,0,
2014-07-12, 02:34:04,VALID,1009.34,VALID,0,VALID,104,VALID,0,VALID,23.4212,VALID,204,VALID,0,
2014-07-12, 02:35:04,VALID,1009.29,VALID,0,VALID,104,VALID,0,VALID,23.4212,VALID,204,VALID,0,
2014-07-12, 02:36:04,VALID,1009.31,VALID,0,VALID,104,VALID,0,VALID,23.4212,VALID,204,VALID,0,
2014-07-12, 02:37:04,VALID,1009.31,VALID,0,VALID,104,VALID,0,VALID,23.4212,VALID,204,VALID,0,
2014-07-12, 02:38:04,VALID,1009.3,VALID,0,VALID,104,VALID,0,VALID,23.4017,VALID,204,VALID,0,
2014-07-12, 02:39:04,VALID,1009.3,VALID,0,VALID,104,VALID,0.112112,VALID,23.3823,VALID,204,VALID,0.00195313,
2014-07-12, 02:40:04,VALID,1009.3,VALID,0,VALID,104,VALID,0,VALID,23.3823,VALID,204,VALID,0,
2014-07-12, 02:41:04,VALID,1009.3,VALID,0,VALID,104,VALID,0,VALID,23.3415,VALID,204,VALID,0,
2014-07-12, 02:42:04,VALID,1009.28,VALID,0,VALID,104,VALID,0,VALID,23.3415,VALID,204,VALID,0,
2014-07-12, 02:43:04,VALID,1009.27,VALID,0,VALID,104,VALID,0,VALID,23.3433,VALID,204,VALID,0,
2014-07-12, 02:44:04,VALID,1009.3,VALID,0,VALID,104,VALID,0,VALID,23.3238,VALID,204,VALID,0,
2014-07-12, 02:45:04,VALID,1009.3,VALID,0,VALID,104,VALID,0,VALID,23.2848,VALID,204,VALID,0.529297,
2014-07-12, 02:46:04,VALID,1009.28,VALID,0,VALID,104,VALID,0,VALID,23.2654,VALID,204,VALID,0.399219,
2014-07-12, 02:47:04,VALID,1009.33,VALID,0,VALID,104,VALID,0,VALID,23.2459,VALID,204,VALID,0.287109,
2014-07-12, 02:48:04,VALID,1009.3,VALID,0,VALID,104,VALID,0,VALID,23.2069,VALID,204,VALID,0.322656,
2014-07-12, 02:49:04,VALID,1009.31,VALID,0,VALID,104,VALID,0.112112,VALID,23.1874,VALID,204,VALID,0.263281,
2014-07-12, 02:50:04,VALID,1009.32,VALID,0,VALID,104,VALID,0,VALID,23.1874,VALID,204,VALID,0,
2014-07-12, 02:51:04,VALID,1009.31,VALID,0,VALID,104,VALID,0,VALID,23.1874,VALID,204,VALID,0.0367187,
2014-07-12, 02:52:04,VALID,1009.28,VALID,0,VALID,104,VALID,0.112112,VALID,23.2069,VALID,204,VALID,0,
2014-07-12, 02:53:04,VALID,1009.3,VALID,0,VALID,104,VALID,0.112112,VALID,23.2069,VALID,204,VALID,0,
2014-07-12, 02:54:04,VALID,1009.32,VALID,0,VALID,104,VALID,0.112112,VALID,23.2069,VALID,204,VALID,0,
2014-07-12, 02:55:04,VALID,1009.3,VALID,0,VALID,104,VALID,0,VALID,23.1874,VALID,204,VALID,0,
2014-07-12, 02:56:04,VALID,1009.31,VALID,0,VALID,104,VALID,0,VALID,23.1679,VALID,204,VALID,0,
2014-07-12, 02:57:04,VALID,1009.33,VALID,0,VALID,104,VALID,0,VALID,23.1679,VALID,204,VALID,0,
2014-07-12, 02:58:04,VALID,1009.35,VALID,0,VALID,104,VALID,0,VALID,23.1874,VALID,204,VALID,0,
2014-07-12, 02:59:04,VALID,1009.37,VALID,0,VALID,104,VALID,0,VALID,23.1874,VALID,204,VALID,0,
2014-07-12, 03:00:04,VALID,1009.35,VALID,0,VALID,104,VALID,0,VALID,23.1679,VALID,204,VALID,0,
2014-07-12, 03:01:04,VALID,1009.32,VALID,0,VALID,104,VALID,0,VALID,23.1874,VALID,204,VALID,0,
2014-07-12, 03:02:04,VALID,1009.33,VALID,0,VALID,104,VALID,0.112112,VALID,23.1874,VALID,204,VALID,0,
2014-07-12, 03:03:04,VALID,1009.27,VALID,0,VALID,104,VALID,0,VALID,23.1679,VALID,204,VALID,0,
2014-07-12, 03:04:04,VALID,1009.26,VALID,0,VALID,104,VALID,0,VALID,23.1874,VALID,204,VALID,0,
2014-07-12, 03:05:04,VALID,1009.24,VALID,0,VALID,104,VALID,0.112112,VALID,23.1874,VALID,204,VALID,0,
2014-07-12, 03:06:04,VALID,1009.21,VALID,0,VALID,104,VALID,0,VALID,23.1874,VALID,204,VALID,0.125781,
2014-07-12, 03:07:04,VALID,1009.2,VALID,0,VALID,104,VALID,0,VALID,23.1679,VALID,204,VALID,0,
2014-07-12, 03:08:04,VALID,1009.17,VALID,0,VALID,104,VALID,0.112112,VALID,23.1679,VALID,204,VALID,0,
2014-07-12, 03:09:04,VALID,1009.17,VALID,0,VALID,104,VALID,0,VALID,23.1485,VALID,204,VALID,0,
2014-07-12, 03:10:04,VALID,1009.17,VALID,0,VALID,104,VALID,0,VALID,23.1485,VALID,204,VALID,0,
2014-07-12, 03:11:04,VALID,1009.18,VALID,0,VALID,104,VALID,0,VALID,23.129,VALID,204,VALID,0,
2014-07-12, 03:12:04,VALID,1009.15,VALID,0,VALID,104,VALID,0,VALID,23.1095,VALID,204,VALID,0,
2014-07-12, 03:13:04,VALID,1009.15,VALID,0,VALID,104,VALID,0,VALID,23.09,VALID,204,VALID,0,
2014-07-12, 03:14:04,VALID,1009.15,VALID,0,VALID,104,VALID,0,VALID,23.0705,VALID,204,VALID,0,
2014-07-12, 03:15:04,VALID,1009.13,VALID,0,VALID,104,VALID,0,VALID,23.0918,VALID,204,VALID,0,
2014-07-12, 03:16:04,VALID,1009.1,VALID,0,VALID,104,VALID,0,VALID,23.0705,VALID,204,VALID,0,
2014-07-12, 03:17:04,VALID,1009.09,VALID,0,VALID,104,VALID,0,VALID,23.0705,VALID,204,VALID,0,
2014-07-12, 03:18:04,VALID,1009.09,VALID,0,VALID,104,VALID,0,VALID,23.0493,VALID,204,VALID,0,
2014-07-12, 03:19:04,VALID,1009.08,VALID,0,VALID,104,VALID,0,VALID,23.0705,VALID,204,VALID,0,
2014-07-12, 03:20:04,VALID,1009.09,VALID,0,VALID,104,VALID,0,VALID,23.09,VALID,204,VALID,0,
2014-07-12, 03:21:04,VALID,1009.07,VALID,0,VALID,104,VALID,0,VALID,23.0705,VALID,204,VALID,0,
2014-07-12, 03:22:04,VALID,1009.09,VALID,0,VALID,104,VALID,0,VALID,23.0511,VALID,204,VALID,0,
2014-07-12, 03:23:04,VALID,1009.11,VALID,0,VALID,104,VALID,0,VALID,23.0316,VALID,204,VALID,0,
2014-07-12, 03:24:04,VALID,1009.11,VALID,0,VALID,104,VALID,0.112112,VALID,23.0121,VALID,204,VALID,0,
2014-07-12, 03:25:04,VALID,1009.1,VALID,0,VALID,104,VALID,0,VALID,23.0316,VALID,204,VALID,0,
2014-07-12, 03:26:04,VALID,1009.11,VALID,0,VALID,104,VALID,0,VALID,23.0316,VALID,204,VALID,0,
2014-07-12, 03:27:04,VALID,1009.12,VALID,0,VALID,104,VALID,0,VALID,23.0316,VALID,204,VALID,0,
2014-07-12, 03:28:04,VALID,1009.13,VALID,0,VALID,104,VALID,0,VALID,23.0511,VALID,204,VALID,0,
2014-07-12, 03:29:04,VALID,1009.14,VALID,0,VALID,104,VALID,0,VALID,23.0316,VALID,204,VALID,0,
2014-07-12, 03:30:04,VALID,1009.14,VALID,0,VALID,104,VALID,0,VALID,23.0316,VALID,204,VALID,0,
2014-07-12, 03:31:04,VALID,1009.15,VALID,0,VALID,104,VALID,0,VALID,23.0511,VALID,204,VALID,0,
2014-07-12, 03:32:04,VALID,1009.15,VALID,0,VALID,104,VALID,0,VALID,23.0511,VALID,204,VALID,0,
2014-07-12, 03:33:04,VALID,1009.14,VALID,0,VALID,104,VALID,0,VALID,23.0705,VALID,204,VALID,0,
2014-07-12, 03:34:04,VALID,1009.15,VALID,0,VALID,104,VALID,0,VALID,23.09,VALID,204,VALID,0,
2014-07-12, 03:35:04,VALID,1009.14,VALID,0,VALID,104,VALID,0,VALID,23.1095,VALID,204,VALID,0,
2014-07-12, 03:36:04,VALID,1009.13,VALID,0,VALID,104,VALID,0,VALID,23.129,VALID,204,VALID,0,
2014-07-12, 03:37:04,VALID,1009.15,VALID,0,VALID,104,VALID,0.112112,VALID,23.1077,VALID,204,VALID,0.00820312,
2014-07-12, 03:38:04,VALID,1009.13,VALID,0,VALID,104,VALID,0,VALID,23.129,VALID,204,VALID,0.260547,
2014-07-12, 03:39:04,VALID,1009.11,VALID,0,VALID,104,VALID,0,VALID,23.129,VALID,204,VALID,0.298438,
2014-07-12, 03:40:04,VALID,1009.16,VALID,0,VALID,104,VALID,0,VALID,23.129,VALID,204,VALID,0.885156,
2014-07-12, 03:41:04,VALID,1009.13,VALID,0,VALID,104,VALID,0,VALID,23.1095,VALID,204,VALID,0.952344,
2014-07-12, 03:42:04,VALID,1009.17,VALID,0,VALID,104,VALID,0,VALID,23.1095,VALID,204,VALID,0.840234,
2014-07-12, 03:43:04,VALID,1009.17,VALID,0,VALID,104,VALID,0,VALID,23.1095,VALID,204,VALID,0.660156,
2014-07-12, 03:44:04,VALID,1009.18,VALID,0,VALID,104,VALID,0,VALID,23.0883,VALID,204,VALID,0.376563,
2014-07-12, 03:45:04,VALID,1009.2,VALID,0,VALID,104,VALID,0,VALID,23.1095,VALID,204,VALID,0,
2014-07-12, 03:46:04,VALID,1009.25,VALID,0,VALID,104,VALID,0,VALID,23.1095,VALID,204,VALID,0.378906,
2014-07-12, 03:47:04,VALID,1009.26,VALID,0,VALID,104,VALID,0,VALID,23.09,VALID,204,VALID,0.542969,
2014-07-12, 03:48:04,VALID,1009.3,VALID,0,VALID,104,VALID,0,VALID,23.0705,VALID,204,VALID,0.475781,
2014-07-12, 03:49:04,VALID,1009.31,VALID,0,VALID,104,VALID,0,VALID,23.0511,VALID,204,VALID,0.396094,
2014-07-12, 03:50:04,VALID,1009.32,VALID,0,VALID,104,VALID,0,VALID,23.0511,VALID,204,VALID,0.0121094,
2014-07-12, 03:51:04,VALID,1009.37,VALID,0,VALID,104,VALID,0,VALID,23.0121,VALID,204,VALID,0.430859,
2014-07-12, 03:52:04,VALID,1009.37,VALID,0,VALID,104,VALID,0,VALID,22.9909,VALID,204,VALID,0.364062,
2014-07-12, 03:53:04,VALID,1009.35,VALID,0,VALID,104,VALID,0.112112,VALID,22.9926,VALID,204,VALID,0.588281,
2014-07-12, 03:54:04,VALID,1009.34,VALID,0,VALID,104,VALID,0,VALID,22.9731,VALID,204,VALID,0.630469,
2014-07-12, 03:55:04,VALID,1009.34,VALID,0,VALID,104,VALID,0,VALID,22.9731,VALID,204,VALID,0.341016,
2014-07-12, 03:56:04,VALID,1009.35,VALID,0,VALID,104,VALID,0,VALID,22.9342,VALID,204,VALID,0.485156,